Time,TemperatureF,DewpointF,PressureIn,WindDirection,WindDirectionDegrees,WindSpeedMPH,WindSpeedGustMPH,Humidity,HourlyPrecipIn,Conditions,Clouds,dailyrainin,SoftwareType,DateUTC
2013-07-21 00:07:00,74.8,73.0,29.86,ESE,112,0.0,-999.0,94,-99.99,,,0.00,Acu-Link.com,2013-07-21 04:07:00,
2013-07-21 00:23:00,75.2,73.3,29.86,ENE,67,0.0,-999.0,94,-99.99,,,0.00,Acu-Link.com,2013-07-21 04:23:00,
2013-07-21 00:38:00,75.6,73.4,29.86,NNW,337,0.0,-999.0,93,-99.99,,,0.00,Acu-Link.com,2013-07-21 04:38:00,
2013-07-21 00:53:00,75.7,73.2,29.86,ENE,67,1.1,-999.0,92,-99.99,,,0.00,Acu-Link.com,2013-07-21 04:53:00,
2013-07-21 01:09:00,75.2,72.7,29.86,WSW,247,0.0,-999.0,92,-99.99,,,0.00,Acu-Link.com,2013-07-21 05:09:00,
2013-07-21 01:24:00,75.0,72.8,29.86,North,0,0.0,-999.0,93,-99.99,,,0.00,Acu-Link.com,2013-07-21 05:24:00,
2013-07-21 01:39:00,74.3,72.1,29.86,SE,135,0.0,-999.0,93,-99.99,,,0.00,Acu-Link.com,2013-07-21 05:39:00,
2013-07-21 01:54:00,74.5,72.3,29.86,SE,135,0.0,-999.0,93,-99.99,,,0.00,Acu-Link.com,2013-07-21 05:54:00,
2013-07-21 02:10:00,74.1,72.3,29.85,SSE,157,0.0,-999.0,94,-99.99,,,0.00,Acu-Link.com,2013-07-21 06:10:00,
2013-07-21 02:25:00,73.8,72.0,29.86,SE,135,0.0,-999.0,94,-99.99,,,0.00,Acu-Link.com,2013-07-21 06:25:00,
2013-07-21 02:40:00,73.4,71.6,29.85,SSE,157,0.0,-999.0,94,-99.99,,,0.00,Acu-Link.com,2013-07-21 06:40:00,
2013-07-21 02:55:00,73.4,71.6,29.85,SSE,157,0.0,-999.0,94,-99.99,,,0.00,Acu-Link.com,2013-07-21 06:55:00,
2013-07-21 03:11:00,73.0,71.2,29.85,SSE,157,0.0,-999.0,94,-99.99,,,0.00,Acu-Link.com,2013-07-21 07:11:00,
2013-07-21 03:26:00,73.0,71.2,29.85,WSW,247,0.0,-999.0,94,-99.99,,,0.00,Acu-Link.com,2013-07-21 07:26:00,
2013-07-21 03:41:00,73.8,71.3,29.85,ESE,112,0.0,-999.0,92,-99.99,,,0.00,Acu-Link.com,2013-07-21 07:41:00,
2013-07-21 03:56:00,72.9,70.8,29.84,WNW,292,1.1,-999.0,93,-99.99,,,0.00,Acu-Link.com,2013-07-21 07:56:00,
2013-07-21 04:13:00,72.9,70.8,29.84,NNE,22,0.0,-999.0,93,-99.99,,,0.00,Acu-Link.com,2013-07-21 08:13:00,
2013-07-21 04:28:00,72.9,71.1,29.84,NNE,22,0.0,-999.0,94,-99.99,,,0.00,Acu-Link.com,2013-07-21 08:28:00,
2013-07-21 04:43:00,72.7,71.2,29.84,NE,45,0.0,-999.0,95,-99.99,,,0.00,Acu-Link.com,2013-07-21 08:43:00,
2013-07-21 04:58:00,72.5,71.0,29.84,ENE,67,0.0,-999.0,95,-99.99,,,0.00,Acu-Link.com,2013-07-21 08:58:00,
2013-07-21 05:13:00,72.7,70.9,29.84,ESE,112,1.7,-999.0,94,-99.99,,,0.00,Acu-Link.com,2013-07-21 09:13:00,
2013-07-21 05:28:00,72.3,70.5,29.84,East,90,0.0,-999.0,94,-99.99,,,0.00,Acu-Link.com,2013-07-21 09:28:00,
2013-07-21 05:44:00,72.1,70.6,29.85,SE,135,0.0,-999.0,95,-99.99,,,0.00,Acu-Link.com,2013-07-21 09:44:00,
2013-07-21 05:59:00,72.5,71.0,29.85,ENE,67,0.0,-999.0,95,-99.99,,,0.00,Acu-Link.com,2013-07-21 09:59:00,
2013-07-21 06:14:00,72.1,70.6,29.86,South,180,0.0,-999.0,95,-99.99,,,0.00,Acu-Link.com,2013-07-21 10:14:00,
2013-07-21 06:30:00,72.0,70.5,29.86,South,180,0.0,-999.0,95,-99.99,,,0.00,Acu-Link.com,2013-07-21 10:30:00,
2013-07-21 06:45:00,72.1,70.9,29.85,SSE,157,0.0,-999.0,96,-99.99,,,0.00,Acu-Link.com,2013-07-21 10:45:00,
2013-07-21 07:00:00,72.0,70.8,29.86,SSE,157,0.0,-999.0,96,-99.99,,,0.00,Acu-Link.com,2013-07-21 11:00:00,
2013-07-21 07:16:00,72.9,71.7,29.86,ENE,67,1.1,-999.0,96,-99.99,,,0.00,Acu-Link.com,2013-07-21 11:16:00,
2013-07-21 07:31:00,73.0,71.8,29.87,East,90,1.7,-999.0,96,-99.99,,,0.00,Acu-Link.com,2013-07-21 11:31:00,
2013-07-21 07:46:00,74.3,72.8,29.88,SE,135,2.2,-999.0,95,-99.99,,,0.00,Acu-Link.com,2013-07-21 11:46:00,
2013-07-21 08:02:00,75.9,74.0,29.88,East,90,2.7,-999.0,94,-99.99,,,0.00,Acu-Link.com,2013-07-21 12:02:00,
2013-07-21 08:17:00,77.0,74.8,29.89,WNW,292,3.7,-999.0,93,-99.99,,,0.00,Acu-Link.com,2013-07-21 12:17:00,
2013-07-21 08:32:00,77.9,75.7,29.90,ESE,112,2.7,-999.0,93,-99.99,,,0.00,Acu-Link.com,2013-07-21 12:32:00,
2013-07-21 08:48:00,78.8,75.9,29.90,ENE,67,2.7,-999.0,91,-99.99,,,0.00,Acu-Link.com,2013-07-21 12:48:00,
2013-07-21 09:03:00,79.0,76.5,29.91,NE,45,2.7,-999.0,92,-99.99,,,0.00,Acu-Link.com,2013-07-21 13:03:00,
2013-07-21 09:18:00,80.4,77.5,29.91,West,270,1.7,-999.0,91,-99.99,,,0.00,Acu-Link.com,2013-07-21 13:18:00,
2013-07-21 09:33:00,81.0,77.8,29.90,ENE,67,4.7,-999.0,90,-99.99,,,0.00,Acu-Link.com,2013-07-21 13:33:00,
2013-07-21 09:49:00,81.1,77.9,29.90,West,270,1.7,-999.0,90,-99.99,,,0.00,Acu-Link.com,2013-07-21 13:49:00,
2013-07-21 10:04:00,82.4,78.8,29.90,SE,135,2.7,-999.0,89,-99.99,,,0.00,Acu-Link.com,2013-07-21 14:04:00,
2013-07-21 10:19:00,82.9,77.9,29.91,NNW,337,1.7,-999.0,85,-99.99,,,0.00,Acu-Link.com,2013-07-21 14:19:00,
2013-07-21 10:35:00,84.7,78.6,29.90,NNE,22,2.7,-999.0,82,-99.99,,,0.00,Acu-Link.com,2013-07-21 14:35:00,
2013-07-21 10:50:00,84.9,78.0,29.90,SW,225,2.2,-999.0,80,-99.99,,,0.00,Acu-Link.com,2013-07-21 14:50:00,
2013-07-21 11:05:00,86.4,78.7,29.90,ENE,67,2.7,-999.0,78,-99.99,,,0.00,Acu-Link.com,2013-07-21 15:05:00,
2013-07-21 11:20:00,86.5,78.4,29.89,SW,225,3.7,-999.0,77,-99.99,,,0.00,Acu-Link.com,2013-07-21 15:20:00,
2013-07-21 11:36:00,87.4,79.3,29.90,West,270,4.2,-999.0,77,-99.99,,,0.00,Acu-Link.com,2013-07-21 15:36:00,
2013-07-21 11:51:00,88.0,79.5,29.90,West,270,3.2,-999.0,76,-99.99,,,0.00,Acu-Link.com,2013-07-21 15:51:00,
2013-07-21 12:06:00,90.7,80.4,29.89,South,180,2.7,-999.0,72,-99.99,,,0.00,Acu-Link.com,2013-07-21 16:06:00,
2013-07-21 12:21:00,90.5,80.2,29.89,WNW,292,1.7,-999.0,72,-99.99,,,0.00,Acu-Link.com,2013-07-21 16:21:00,
2013-07-21 12:36:00,90.3,80.0,29.89,WNW,292,1.7,-999.0,72,-99.99,,,0.00,Acu-Link.com,2013-07-21 16:36:00,
2013-07-21 12:51:00,89.8,79.1,29.87,West,270,2.7,-999.0,71,-99.99,,,0.00,Acu-Link.com,2013-07-21 16:51:00,
2013-07-21 13:06:00,91.6,79.1,29.87,West,270,4.2,-999.0,67,-99.99,,,0.00,Acu-Link.com,2013-07-21 17:06:00,
2013-07-21 13:22:00,92.7,79.6,29.86,NW,315,2.7,-999.0,66,-99.99,,,0.00,Acu-Link.com,2013-07-21 17:22:00,
2013-07-21 13:37:00,92.1,78.6,29.84,West,270,4.2,-999.0,65,-99.99,,,0.00,Acu-Link.com,2013-07-21 17:37:00,
2013-07-21 13:52:00,94.8,78.2,29.83,West,270,1.7,-999.0,59,-99.99,,,0.00,Acu-Link.com,2013-07-21 17:52:00,
2013-07-21 14:07:00,95.4,76.1,29.81,West,270,3.7,-999.0,54,-99.99,,,0.00,Acu-Link.com,2013-07-21 18:07:00,
2013-07-21 14:23:00,94.1,77.0,29.81,East,90,4.2,-999.0,58,-99.99,,,0.00,Acu-Link.com,2013-07-21 18:23:00,
2013-07-21 14:38:00,95.5,76.2,29.80,ENE,67,4.2,-999.0,54,-99.99,,,0.00,Acu-Link.com,2013-07-21 18:38:00,
2013-07-21 14:53:00,93.6,75.5,29.80,ESE,112,3.2,-999.0,56,-99.99,,,0.00,Acu-Link.com,2013-07-21 18:53:00,
2013-07-21 15:09:00,95.9,76.5,29.80,East,90,2.2,-999.0,54,-99.99,,,0.00,Acu-Link.com,2013-07-21 19:09:00,
2013-07-21 15:24:00,96.1,74.4,29.78,ENE,67,2.2,-999.0,50,-99.99,,,0.00,Acu-Link.com,2013-07-21 19:24:00,
2013-07-21 15:39:00,95.9,73.0,29.77,NNW,337,3.2,-999.0,48,-99.99,,,0.00,Acu-Link.com,2013-07-21 19:39:00,
2013-07-21 15:54:00,97.2,74.8,29.77,SW,225,2.7,-999.0,49,-99.99,,,0.00,Acu-Link.com,2013-07-21 19:54:00,
2013-07-21 16:09:00,94.5,75.2,29.76,SW,225,1.7,-999.0,54,-99.99,,,0.00,Acu-Link.com,2013-07-21 20:09:00,
2013-07-21 16:24:00,87.4,72.8,29.78,SW,225,6.3,-999.0,62,-99.99,,,0.00,Acu-Link.com,2013-07-21 20:24:00,
2013-07-21 16:39:00,81.3,72.2,29.79,North,0,3.7,-999.0,74,-99.99,,,0.01,Acu-Link.com,2013-07-21 20:39:00,
2013-07-21 16:54:00,83.7,72.9,29.79,East,90,5.3,-999.0,70,-99.99,,,0.02,Acu-Link.com,2013-07-21 20:54:00,
2013-07-21 17:09:00,86.9,74.6,29.79,SSE,157,1.7,-999.0,67,-99.99,,,0.02,Acu-Link.com,2013-07-21 21:09:00,
2013-07-21 17:25:00,84.9,72.7,29.79,SSW,202,2.7,-999.0,67,-99.99,,,0.02,Acu-Link.com,2013-07-21 21:25:00,
2013-07-21 17:40:00,84.7,71.6,29.81,West,270,5.3,-999.0,65,-99.99,,,0.02,Acu-Link.com,2013-07-21 21:40:00,
2013-07-21 17:55:00,84.7,70.7,29.80,North,0,2.7,-999.0,63,-99.99,,,0.02,Acu-Link.com,2013-07-21 21:55:00,
2013-07-21 18:10:00,84.0,70.5,29.81,ESE,112,2.7,-999.0,64,-99.99,,,0.02,Acu-Link.com,2013-07-21 22:10:00,
2013-07-21 18:26:00,84.0,71.8,29.81,West,270,1.7,-999.0,67,-99.99,,,0.02,Acu-Link.com,2013-07-21 22:26:00,
2013-07-21 18:41:00,82.9,71.2,29.80,WSW,247,2.2,-999.0,68,-99.99,,,0.02,Acu-Link.com,2013-07-21 22:41:00,
2013-07-21 18:56:00,82.4,71.2,29.80,ESE,112,1.1,-999.0,69,-99.99,,,0.02,Acu-Link.com,2013-07-21 22:56:00,
2013-07-21 19:11:00,81.3,71.4,29.79,NNE,22,2.2,-999.0,72,-99.99,,,0.02,Acu-Link.com,2013-07-21 23:11:00,
2013-07-21 19:27:00,80.4,70.5,29.82,East,90,2.7,-999.0,72,-99.99,,,0.02,Acu-Link.com,2013-07-21 23:27:00,
2013-07-21 19:42:00,79.2,69.0,29.84,East,90,3.2,-999.0,71,-99.99,,,0.02,Acu-Link.com,2013-07-21 23:42:00,
2013-07-21 19:57:00,78.6,69.2,29.85,SSE,157,2.2,-999.0,73,-99.99,,,0.02,Acu-Link.com,2013-07-21 23:57:00,
2013-07-21 20:12:00,78.4,69.0,29.85,ENE,67,1.7,-999.0,73,-99.99,,,0.02,Acu-Link.com,2013-07-22 00:12:00,
2013-07-21 20:27:00,78.1,68.7,29.85,East,90,2.2,-999.0,73,-99.99,,,0.02,Acu-Link.com,2013-07-22 00:27:00,
2013-07-21 20:43:00,77.7,68.7,29.87,ENE,67,2.7,-999.0,74,-99.99,,,0.02,Acu-Link.com,2013-07-22 00:43:00,
2013-07-21 20:58:00,77.7,69.1,29.88,SSW,202,2.2,-999.0,75,-99.99,,,0.02,Acu-Link.com,2013-07-22 00:58:00,
2013-07-21 21:13:00,77.5,68.9,29.89,ESE,112,1.1,-999.0,75,-99.99,,,0.02,Acu-Link.com,2013-07-22 01:13:00,
2013-07-21 21:29:00,77.5,68.9,29.89,NE,45,3.2,-999.0,75,-99.99,,,0.02,Acu-Link.com,2013-07-22 01:29:00,
2013-07-21 21:44:00,77.4,69.2,29.89,NNE,22,3.2,-999.0,76,-99.99,,,0.02,Acu-Link.com,2013-07-22 01:44:00,
2013-07-21 21:59:00,76.6,68.5,29.89,NNE,22,3.7,-999.0,76,-99.99,,,0.02,Acu-Link.com,2013-07-22 01:59:00,
2013-07-21 22:15:00,76.3,68.5,29.89,ENE,67,3.7,-999.0,77,-99.99,,,0.02,Acu-Link.com,2013-07-22 02:15:00,
2013-07-21 22:30:00,76.3,68.5,29.89,West,270,1.7,-999.0,77,-99.99,,,0.02,Acu-Link.com,2013-07-22 02:30:00,
2013-07-21 22:45:00,77.2,69.4,29.89,WNW,292,1.7,-999.0,77,-99.99,,,0.02,Acu-Link.com,2013-07-22 02:45:00,
2013-07-21 23:01:00,76.3,68.5,29.89,East,90,2.2,-999.0,77,-99.99,,,0.02,Acu-Link.com,2013-07-22 03:01:00,
2013-07-21 23:16:00,76.6,68.8,29.89,West,270,1.7,-999.0,77,-99.99,,,0.02,Acu-Link.com,2013-07-22 03:16:00,
2013-07-21 23:31:00,76.6,69.2,29.89,North,0,1.1,-999.0,78,-99.99,,,0.02,Acu-Link.com,2013-07-22 03:31:00,
2013-07-21 23:46:00,75.9,68.5,29.89,ENE,67,1.7,-999.0,78,-99.99,,,0.02,Acu-Link.com,2013-07-22 03:46:00,